Regional Weather Roundup
Issued by NWS

Home | Current Version | Previous Version | Graphics & Text | Print | Product List | Glossary On
Versions: 1 2 3 4 5 6 7 8 9 10 11 12 13 14 15 16 17 18 19 20 21 22 23 24 25 26 27 28 29 30 31 32 33 34 35 36 37 38 39 40 41 42 43 44 45 46 47 48 49 50
510
ASUS43 KMPX 271501
RWRMN
WEATHER ROUNDUP FOR MINNESOTA
NATIONAL WEATHER SERVICE TWIN CITIES/CHANHASSEN MN
1000 AM CDT SAT MAY 27 2017


NOTE: "FAIR" INDICATES FEW OR NO CLOUDS BELOW 12,000 FEET WITH NO
SIGNIFICANT WEATHER AND/OR OBSTRUCTIONS TO VISIBILITY. N/A MEANS
CURRENT SKY AND/OR WEATHER CONDITIONS ARE NOT AVAILABLE.

MNZ060>063-068>070-271600-
   Twin Cities Metro

CITY           SKY/WX    TMP DP  RH WIND       PRES   REMARKS
TWIN CITIES    PTSUNNY   69  46  43 NW7       29.89S
ST PAUL        SUNNY     67  46  47 W8        29.89S
CRYSTAL        CLOUDY    69  44  40 NW9       29.88S
BLAINE         MOSUNNY   72  46  40 W8        29.88F
LAKEVILLE      CLOUDY    66  46  48 NW6       29.89F
EDEN PRAIRIE   CLOUDY    69  46  43 NW10      29.88F
SOUTH ST PAUL  CLOUDY    67  46  45 N6        29.89F
LAKE ELMO      FAIR      68  50  52 NW5       29.90F
$$
MNZ001>005-007-008-013>017-022>024-027-028-271600-
   Northwest Minnesota

CITY           SKY/WX    TMP DP  RH WIND       PRES   REMARKS
BEMIDJI        SUNNY     67  42  39 SW9       29.82S
HALLOCK        MOSUNNY   66  46  48 SW7       29.74S
ROSEAU         SUNNY     66  48  52 SW8       29.75S
WARROAD        SUNNY     64  50  59 SW7       29.76R
CROOKSTON      SUNNY     66  45  45 W8        29.79S
FOSSTON        SUNNY     64  43  45 SW12      29.82S
DETROIT LAKES  SUNNY     64  43  45 W6        29.86R
MOORHEAD       SUNNY     68  43  40 W8        29.84S
PARK RAPIDS    MOSUNNY   67  45  45 SW10      29.84F
MAHNOMEN       FAIR      65  42  42 SW10      29.82S
$$
MNZ006-009>011-018-025>026-271600-
   North Central Minnesota

CITY           SKY/WX    TMP DP  RH WIND       PRES   REMARKS
BAUDETTE       SUNNY     67  46  47 SW10      29.76F
FLAG ISLAND    SUNNY     55  48  76 SE10      29.73S
INTL FALLS     CLOUDY    66  43  43 W12       29.79S
WASKISH        PTSUNNY   64  46  52 W7        29.80S
BIG FORK       CLOUDY    68  46  45 SW10      29.82R
LONGVILLE      CLOUDY    61  48  63 SW3       29.85S
GRAND RAPIDS   CLOUDY    61  46  57 SW6       29.87
CRANE LAKE     SUNNY     63  45  51 S5        29.81F
ORR            CLOUDY    64  39  39 SW5       29.79F
COOK           CLOUDY    63  46  55 SW6       29.83F
WALKER         FAIR      64  45  49 SW8       29.83S
$$
MNZ012-019>021-037-271600-
   Northeast Minnesota

CITY           SKY/WX    TMP DP  RH WIND       PRES   REMARKS
DULUTH         MOSUNNY   66  46  48 W14       29.85S
ELY            PTSUNNY   57  48  72 SW3       29.83S
HIBBING        PTSUNNY   60  44  55 W6        29.84F
EVELETH        PTSUNNY   60  45  57 SW5       29.86S
DULUTH HARBOR  CLOUDY    64  54  68 SW5       29.85F
TWO HARBORS    MOSUNNY   68  48  49 W5        29.83R
SILVER BAY     CLOUDY    66  46  48 SW3       29.82R
GRAND MARAIS     N/A     45  42  89 W14       29.81S
G MARAIS ARPRT CLOUDY    63  43  48 SW6       29.83S
$$
MNZ029>031-032-039>041-046>048-054>057-064-271600-
   West Central Minnesota

CITY           SKY/WX    TMP DP  RH WIND       PRES   REMARKS
FERGUS FALLS   SUNNY     64  48  55 W6        29.85S
WHEATON        SUNNY     70  45  40 SW12      29.88S
MORRIS         CLOUDY    68  48  49 SW7       29.88S
ALEXANDRIA     CLOUDY    64  48  56 SW9       29.90R
ELBOW LAKE     FAIR      64  49  58 SW9       29.88S
WADENA         MOSUNNY   64  46  52 SW8       29.86S
GLENWOOD       CLOUDY    63  48  59 SW8       29.90S
APPLETON       CLOUDY    63  50  63 SW3       29.88F
BENSON         CLOUDY    63  52  67 CALM      29.91S
ORTONVILLE     MOSUNNY   66  48  52 SW5       29.89R
MADISON        CLOUDY    66  54  63 SW7       29.90R
WILLMAR        FAIR      63  48  59 CALM      29.91F
$$
MNZ033>034-036-042>043-049>051-058-059-271600-
   Central Minnesota

CITY           SKY/WX    TMP DP  RH WIND       PRES   REMARKS
ST CLOUD       CLOUDY    65  47  52 W5        29.90R
SAUK CENTRE    FAIR      63  49  59 SW6       29.89S
PAYNESVILLE    CLOUDY    62  47  56 SW5       29.91S
AITKIN         MOSUNNY   64  48  55 W3        29.86S
PINE RIVER     CLOUDY    61  48  63 SW3       29.89S
BRAINERD       CLOUDY    63  46  54 SW7       29.87F
STAPLES        CLOUDY    63  46  55 SW6       29.87R
LONG PRAIRIE   FAIR      61  46  59 S7        29.89S
LITTLE FALLS   PTSUNNY   63  45  51 CALM      29.89S
LITCHFIELD     CLOUDY    66  52  59 W3        29.91F
BUFFALO        CLOUDY    67  47  47 W7        29.90F
MAPLE LAKE     CLOUDY    67  48  50 W5        29.91S
HUTCHINSON     CLOUDY    68  50  52 W7        29.91F
$$
MNZ037-044-045-052-053-271600-
   East Central Minnesota

CITY           SKY/WX    TMP DP  RH WIND       PRES   REMARKS
PRINCETON      CLOUDY    66  48  52 W8        29.90R
MORA           MOSUNNY   64  48  55 NW3       29.90R
CAMBRIDGE      MOSUNNY   70  50  49 W7        29.87S
RUSH CITY      MOSUNNY   67  50  54 W6        29.89R HAZE
MOOSE LAKE     CLOUDY    66  45  45 W5        29.85F
HINCKLEY       FAIR      66  48  52 W7        29.88R
CLOQUET        MOSUNNY   66  39  37 W10       29.86S
MCGREGOR       CLOUDY    64  46  52 SW6       29.88R
$$
MNZ071>073-080-081-089-090-097-098-271600-
   Southwest Minnesota

CITY           SKY/WX    TMP DP  RH WIND       PRES   REMARKS
MONTEVIDEO     CLOUDY    63  52  67 SW3       29.90S
CANBY          CLOUDY    63  50  62 CALM      29.91F
MARSHALL       CLOUDY    65  48  54 W10       29.91F
REDWOOD FALLS  CLOUDY    64  49  57 SW5       29.91F
OLIVIA         PTSUNNY   63  46  55 SW5       29.90F
PIPESTONE      CLOUDY    61  46  59 W7        29.93F
WINDOM         PTSUNNY   64  50  59 CALM      29.94R
WORTHINGTON    LGT RAIN  62  50  64 SW8       29.95S
JACKSON        FLURRIES  61  50  67 CALM      29.95S
TRACY          CLOUDY    64  50  59 SW6       29.92S
SLAYTON        CLOUDY    61  48  62 SW6       29.94S
$$
MNZ065>067-074>077-082>085-091>093-271600-
   South Central Minnesota

CITY           SKY/WX    TMP DP  RH WIND       PRES   REMARKS
MANKATO          N/A     66  46  48 CALM      29.92R
NEW ULM        CLOUDY    64  48  55 W6        29.91S
ST JAMES       PTSUNNY   64  46  52 CALM      29.94R
FAIRMONT       CLOUDY    68  48  48 CALM      29.94R
GLENCOE        MOSUNNY   68  51  54 W6        29.90F
FARIBAULT      MOSUNNY   68  48  49 NW3       29.91S
OWATONNA       SUNNY     66  45  45 NW6       29.92R
WASECA         SUNNY     68  45  42 N6        29.93R
ALBERT LEA     SUNNY     70  46  43 N3        29.92R
$$
MNZ078>079-086>088-094>096-271600-
   Southeast Minnesota

CITY           SKY/WX    TMP DP  RH WIND       PRES   REMARKS
ROCHESTER      SUNNY     67  53  61 NW7       29.93R
RED WING       SUNNY     68  48  49 SW3       29.88F
STANTON        SUNNY     69  47  46 NW5       29.89S
DODGE CENTER   SUNNY     66  45  45 NW7       29.92R
WINONA         SUNNY     70  57  64 NE6       29.89S
AUSTIN         MOSUNNY   68  52  56 NW3       29.92R
PRESTON        SUNNY     67  47  48 W3        29.91S
$$
ABBREVIATIONS USED IN REMARKS
   TC - TEMPERATURES IN CELSIUS
  WCI - WIND CHILL INDEX
   HX - HEAT INDEX
  VSB - VISIBILITY
$$




USA.gov is the U.S. government's official web portal to all federal, state and local government web resources and services.